Location: Te Maire Creek
(41.1333°S, 175.9167°E)
Time: 21:52:42
(UTC+00:00)

Cosmos 1727 Rocket - Pass Details

Date: 19 May 2024
Orbit: 961 x 996 km, 82.9° (Epoch: 21 June)

Event Time Altitude Azimuth Distance (km) Brightness Sun altitude
Rises 18:33:44 0° 348° (NNW) 3,692 7.1 -9.2°
Reaches altitude 10° 18:36:14 10° 345° (NNW) 2,754 6.4 -8.8°
Maximum altitude 18:42:34 71° 261° (W) 1,062 4.0 -7.7°
Drops below altitude 10° 18:48:59 10° 177° (S) 2,796 6.2 -6.5°
Sets 18:51:34 0° 174° (S) 3,751 6.9 -6.1°
